GW0262 Weather Reports


Display with metric or nautical units.
time (UTC)temp
F
wind
direction
speed
MPH
gust
MPH
rain 1hr
in
rain 24hr
in
rain mn
in
humidity
%
barometer
mb
20260510054553 50 0 0.0 1.0 0.00 0.00 0.00 94 1011.5
20260510053102 49 0 0.0 0.0 0.00 0.00 0.00 94 1011.4
20260510051558 51 0 0.0 0.0 0.00 0.00 0.00 94 1011.5
20260510050056 51 0 0.0 0.0 0.00 0.00 0.00 93 1011.4
20260510044557 52 0 0.0 2.0 0.00 0.00 0.00 92 1011.5
20260510043105 53 0 0.0 1.0 0.00 0.00 0.00 91 1011.6
20260510041555 53 0 0.0 0.0 0.00 0.00 0.00 91 1011.5
20260510040101 54 0 0.0 1.0 0.00 0.00 0.00 89 1011.3
20260510034600 54 0 0.0 1.0 0.00 0.00 0.00 88 1011.4
20260510033107 55 0 0.0 1.0 0.00 0.00 0.00 87 1011.2
20260510031556 55 0 0.0 1.0 0.00 0.00 0.00 88 1010.9
20260510024553 56 0 0.0 0.0 0.00 0.00 0.00 85 1010.8
20260510023057 57 0 0.0 0.0 0.00 0.00 0.00 84 1010.6
20260510021553 57 0 0.0 0.0 0.00 0.00 0.00 83 1010.2
20260510020057 57 0 0.0 1.0 0.00 0.00 0.00 83 1010.1
20260510014553 58 0 0.0 0.0 0.00 0.00 0.00 82 1009.9
20260510013053 59 0 0.0 0.0 0.00 0.00 0.00 80 1009.7
20260510011557 60 0 0.0 0.0 0.00 0.00 0.00 78 1009.5
20260510010053 61 0 0.0 0.0 0.00 0.00 0.00 76 1009.3
20260510004602 62 0 0.0 0.0 0.00 0.00 0.00 73 1009.1
20260510003104 64 0 0.0 0.0 0.00 0.00 0.00 69 1009.0
20260510001551 66 0 0.0 0.0 0.00 0.00 0.00 65 1008.9
20260510000058 68 0 0.0 1.0 0.00 0.00 0.00 61 1008.6
20260509234550 70 0 0.0 2.0 0.00 0.00 0.00 56 1008.6
20260509233056 72 0 0.0 7.0 0.00 0.00 0.00 54 1008.5
20260509231552 73 238 1.0 5.0 0.00 0.00 0.00 52 1008.5
20260509230055 74 167 2.0 8.0 0.00 0.00 0.00 50 1008.5
20260509224553 74 170 2.0 5.0 0.00 0.00 0.00 49 1008.5
20260509223051 74 229 1.0 7.0 0.00 0.00 0.00 49 1008.6
20260509221553 75 222 1.0 6.0 0.00 0.00 0.00 50 1008.6
20260509220050 76 261 2.0 5.0 0.00 0.00 0.00 48 1008.4
20260509214615 74 180 1.0 6.0 0.00 0.00 0.00 54 1008.4
20260509213054 74 245 1.0 5.0 0.00 0.00 0.00 50 1008.2
20260509211553 74 131 1.0 10.0 0.00 0.00 0.00 47 1008.3
20260509210106 77 78 1.0 7.0 0.00 0.00 0.00 47 1008.2
20260509204554 76 0 3.0 10.0 0.00 0.00 0.00 46 1008.1
20260509203115 74 300 2.0 6.0 0.00 0.00 0.00 51 1008.0
20260509201551 75 83 1.0 9.0 0.00 0.00 0.00 50 1008.0
20260509200055 75 229 3.0 9.0 0.00 0.00 0.00 49 1008.1
20260509194555 77 323 3.0 11.0 0.00 0.00 0.00 46 1008.3
20260509193102 76 304 5.0 12.0 0.00 0.00 0.00 48 1008.6
20260509191601 76 63 3.0 12.0 0.00 0.00 0.00 50 1008.7
20260509190057 76 271 3.0 10.0 0.00 0.00 0.00 48 1009.0
20260509184600 76 263 3.0 11.0 0.00 0.00 0.00 50 1009.1
20260509183059 76 299 3.0 9.0 0.00 0.00 0.00 51 1009.6
20260509181558 74 261 3.0 9.0 0.00 0.00 0.00 55 1009.8
20260509180109 72 265 2.0 9.0 0.00 0.00 0.00 56 1010.0
20260509174624 73 284 2.0 11.0 0.00 0.00 0.00 56 1010.0
20260509173100 73 242 2.0 8.0 0.00 0.00 0.00 56 1010.2
20260509171557 72 80 4.0 13.0 0.00 0.00 0.00 55 1010.3
20260509170100 71 239 2.0 9.0 0.00 0.00 0.00 58 1010.3
20260509164556 69 249 2.0 11.0 0.00 0.00 0.00 61 1010.7
20260509163100 69 62 2.0 11.0 0.00 0.00 0.00 62 1010.7
20260509161554 70 202 3.0 11.0 0.00 0.00 0.00 60 1010.6
20260509160055 70 132 4.0 17.0 0.00 0.00 0.00 59 1010.7
20260509154554 70 65 3.0 12.0 0.00 0.00 0.00 60 1010.9
20260509153104 67 272 2.0 11.0 0.00 0.00 0.00 64 1011.1
20260509151555 66 157 2.0 7.0 0.00 0.00 0.00 66 1011.3
20260509150056 63 236 1.0 7.0 0.00 0.00 0.00 69 1011.5
20260509144551 65 109 4.0 10.0 0.00 0.00 0.00 66 1011.5
20260509143054 62 161 2.0 8.0 0.00 0.00 0.00 68 1011.6
20260509141559 61 113 2.0 6.0 0.00 0.00 0.00 72 1011.8
20260509140055 59 100 3.0 10.0 0.00 0.00 0.00 73 1012.0
20260509134551 57 107 2.0 4.0 0.00 0.00 0.00 73 1012.2
20260509133054 57 243 1.0 6.0 0.00 0.00 0.00 75 1012.1
20260509131559 57 0 2.0 4.0 0.00 0.00 0.00 76 1012.2
20260509130106 56 0 0.0 3.0 0.00 0.00 0.00 77 1012.3
20260509124557 55 189 1.0 7.0 0.00 0.00 0.00 78 1012.5
20260509123058 54 0 1.0 6.0 0.00 0.00 0.00 78 1012.3
20260509121604 53 87 1.0 3.0 0.00 0.00 0.00 79 1012.3
20260509120053 52 119 1.0 4.0 0.00 0.00 0.00 81 1012.3
20260509114559 50 0 0.0 2.0 0.00 0.00 0.00 82 1012.4
20260509113058 49 72 1.0 2.0 0.00 0.00 0.00 84 1012.3
20260509111557 48 199 0.0 1.0 0.00 0.00 0.00 86 1012.5
20260509110056 47 0 0.0 1.0 0.00 0.00 0.00 87 1012.3
20260509104600 47 0 0.0 1.0 0.00 0.00 0.00 85 1012.3
20260509103102 47 0 0.0 1.0 0.00 0.00 0.00 86 1012.2
20260509101605 46 0 0.0 1.0 0.00 0.00 0.00 88 1012.1
20260509100057 46 0 0.0 0.0 0.00 0.00 0.00 87 1011.8
20260509094609 45 0 0.0 0.0 0.00 0.00 0.00 87 1011.9
20260509093059 47 0 0.0 0.0 0.00 0.00 0.00 85 1012.1
20260509091605 46 0 0.0 2.0 0.00 0.00 0.00 86 1012.2
20260509090100 44 0 0.0 1.0 0.00 0.00 0.00 87 1012.2
20260509084555 44 0 0.0 1.0 0.00 0.00 0.00 85 1012.3
20260509083101 44 0 0.0 1.0 0.00 0.00 0.00 86 1012.5
20260509081556 44 0 0.0 0.0 0.00 0.00 0.00 85 1012.6
20260509080055 44 0 0.0 0.0 0.00 0.00 0.00 85 1012.8
20260509074557 44 0 0.0 0.0 0.00 0.00 0.00 85 1012.7
20260509073055 44 0 0.0 1.0 0.00 0.00 0.00 85 1012.7
20260509071548 45 0 0.0 0.0 0.00 0.00 0.00 84 1012.7
20260509070057 47 0 0.0 1.0 0.00 0.00 0.00 80 1013.1
20260509064553 45 0 0.0 2.0 0.00 0.00 0.00 84 1013.0
20260509063054 45 0 0.0 0.0 0.00 0.00 0.00 83 1013.0
20260509061558 45 0 0.0 0.0 0.00 0.00 0.00 85 1013.2
20260509060108 45 0 0.0 0.0 0.00 0.00 0.00 84 1013.2